GW1975 Weather Reports


Display with metric or nautical units.
time (UTC)temp
F
wind
direction
speed
MPH
gust
MPH
rain 1hr
in
rain 24hr
in
rain mn
in
humidity
%
barometer
mb
20260902113235 80 260 1.0 2.0 0.00 0.00 0.00 69 1018.0
20260902112736 80 247 1.0 2.0 0.00 0.00 0.00 69 1017.0
20260902112235 81 242 1.0 2.0 0.00 0.00 0.00 68 1018.0
20260902111735 81 223 1.0 2.0 0.00 0.00 0.00 67 1017.0
20260902111236 81 243 1.0 2.0 0.00 0.00 0.00 67 1017.0
20260902110736 81 228 0.0 2.0 0.00 0.00 0.00 66 1017.0
20260902110236 81 236 3.0 3.0 0.00 0.00 0.00 66 1017.0
20260902105735 81 230 2.0 2.0 0.00 0.00 0.00 66 1017.0
20260902105235 81 243 2.0 2.0 0.00 0.00 0.00 65 1017.0
20260902104735 81 227 2.0 2.0 0.00 0.00 0.00 66 1017.0
20260902104235 81 247 2.0 3.0 0.00 0.00 0.00 66 1017.0
20260902103737 81 236 1.0 2.0 0.00 0.00 0.00 66 1017.0
20260902103235 81 232 2.0 2.0 0.00 0.00 0.00 66 1017.0
20260902102735 81 229 1.0 2.0 0.00 0.00 0.00 66 1017.0
20260902102236 81 239 1.0 2.0 0.00 0.00 0.00 66 1017.0
20260902101735 81 238 3.0 3.0 0.00 0.00 0.00 66 1017.0
20260902101235 82 261 2.0 3.0 0.00 0.00 0.00 66 1017.0
20260902100735 82 250 1.0 2.0 0.00 0.00 0.00 66 1017.0
20260902100235 82 236 1.0 2.0 0.00 0.00 0.00 65 1017.0
20260902095735 81 237 2.0 3.0 0.00 0.00 0.00 65 1017.0
20260902095235 81 261 2.0 3.0 0.00 0.00 0.00 66 1017.0
20260902094736 81 222 0.0 2.0 0.00 0.00 0.00 67 1017.0
20260902094236 81 239 1.0 3.0 0.00 0.00 0.00 67 1017.0
20260902093735 81 239 3.0 3.0 0.00 0.00 0.00 68 1017.0
20260902093235 81 177 1.0 2.0 0.00 0.00 0.00 67 1017.0
20260902092736 81 246 1.0 2.0 0.00 0.00 0.00 68 1017.0
20260902092235 81 246 0.0 3.0 0.00 0.00 0.00 68 1017.0
20260902091736 81 222 1.0 2.0 0.00 0.00 0.00 68 1017.0
20260902091236 80 224 2.0 2.0 0.00 0.00 0.00 69 1017.0
20260902090736 80 228 2.0 2.0 0.00 0.00 0.00 69 1017.0
20260902090236 80 241 1.0 2.0 0.00 0.00 0.00 70 1017.0
20260902085735 80 236 0.0 3.0 0.00 0.00 0.00 71 1017.0
20260902085235 80 258 1.0 2.0 0.00 0.00 0.00 71 1017.0
20260902084735 80 255 0.0 2.0 0.00 0.00 0.00 72 1017.0
20260902084238 80 248 2.0 2.0 0.00 0.00 0.00 72 1017.0
20260902083735 80 243 2.0 2.0 0.00 0.00 0.00 72 1017.0
20260902083236 80 247 1.0 2.0 0.00 0.00 0.00 72 1016.0
20260902082735 80 250 1.0 2.0 0.00 0.00 0.00 72 1017.0
20260902082235 80 225 1.0 2.0 0.00 0.00 0.00 72 1016.0
20260902081735 80 248 1.0 2.0 0.00 0.00 0.00 71 1017.0
20260902081235 80 249 1.0 2.0 0.00 0.00 0.00 71 1017.0
20260902080735 80 236 1.0 2.0 0.00 0.00 0.00 71 1016.0
20260902080235 80 231 2.0 2.0 0.00 0.00 0.00 71 1016.0
20260902075738 80 256 2.0 2.0 0.00 0.00 0.00 71 1017.0
20260902075236 80 232 2.0 2.0 0.00 0.00 0.00 71 1017.0
20260902074735 80 247 1.0 2.0 0.00 0.00 0.00 71 1017.0
20260902074235 80 195 1.0 2.0 0.00 0.00 0.00 71 1017.0
20260902073735 80 180 0.0 2.0 0.00 0.00 0.00 71 1017.0
20260902073235 80 250 2.0 2.0 0.00 0.00 0.00 70 1017.0
20260902072736 81 241 1.0 2.0 0.00 0.00 0.00 70 1017.0
20260902072235 81 248 1.0 2.0 0.00 0.00 0.00 70 1017.0
20260902071736 81 224 2.0 2.0 0.00 0.00 0.00 70 1017.0
20260902071236 81 224 1.0 2.0 0.00 0.00 0.00 70 1017.0
20260902070742 81 223 2.0 2.0 0.00 0.00 0.00 70 1017.0
20260902070235 81 247 2.0 2.0 0.00 0.00 0.00 70 1017.0
20260902065735 81 255 1.0 2.0 0.00 0.00 0.00 70 1017.0
20260902065235 81 208 2.0 2.0 0.00 0.00 0.00 70 1017.0
20260902064735 81 234 1.0 2.0 0.00 0.00 0.00 70 1017.0
20260902064236 81 227 2.0 2.0 0.00 0.00 0.00 70 1017.0
20260902063736 81 229 2.0 2.0 0.00 0.00 0.00 71 1017.0
20260902063237 81 234 1.0 2.0 0.00 0.00 0.00 70 1017.0
20260902062737 81 256 1.0 2.0 0.00 0.00 0.00 70 1017.0
20260902061735 81 256 1.0 2.0 0.00 0.00 0.00 70 1017.0
20260902061235 81 256 1.0 2.0 0.00 0.00 0.00 70 1017.0
20260902060735 81 256 1.0 2.0 0.00 0.00 0.00 70 1017.0
20260902060235 81 256 1.0 2.0 0.00 0.00 0.00 70 1017.0
20260902055737 81 259 1.0 2.0 0.00 0.00 0.00 70 1017.0
20260902055235 81 248 1.0 2.0 0.00 0.00 0.00 70 1017.0
20260902054737 81 249 2.0 2.0 0.00 0.00 0.00 70 1017.0
20260902054235 81 258 1.0 2.0 0.00 0.00 0.00 69 1017.0
20260902053735 81 265 1.0 2.0 0.00 0.00 0.00 69 1017.0
20260902053235 81 248 2.0 2.0 0.00 0.00 0.00 69 1017.0
20260902052736 82 258 1.0 2.0 0.00 0.00 0.00 69 1017.0
20260902052237 82 254 1.0 2.0 0.00 0.00 0.00 68 1017.0
20260902051736 82 233 1.0 2.0 0.00 0.00 0.00 68 1017.0
20260902051235 82 260 2.0 2.0 0.00 0.00 0.00 68 1017.0
20260902050735 82 248 1.0 2.0 0.00 0.00 0.00 67 1017.0
20260902050235 82 237 1.0 2.0 0.00 0.00 0.00 67 1017.0
20260902045735 82 274 1.0 2.0 0.00 0.00 0.00 67 1017.0
20260902045237 82 260 1.0 2.0 0.00 0.00 0.00 67 1017.0
20260902044736 83 234 2.0 2.0 0.00 0.00 0.00 66 1017.0
20260902044236 83 256 1.0 2.0 0.00 0.00 0.00 66 1017.0
20260902043736 83 269 1.0 2.0 0.00 0.00 0.00 66 1017.0
20260902043235 83 217 0.0 2.0 0.00 0.00 0.00 66 1017.0
20260902042735 83 246 0.0 2.0 0.00 0.00 0.00 66 1017.0
20260902042235 83 263 1.0 1.0 0.00 0.00 0.00 66 1017.0
20260902041735 83 248 1.0 2.0 0.00 0.00 0.00 65 1017.0
20260902041235 83 259 1.0 2.0 0.00 0.00 0.00 65 1017.0
20260902040735 83 258 2.0 2.0 0.00 0.00 0.00 64 1017.0
20260902040235 83 259 1.0 2.0 0.00 0.00 0.00 64 1017.0
20260902035744 83 254 1.0 2.0 0.00 0.00 0.00 64 1017.0
20260902035237 83 255 1.0 2.0 0.00 0.00 0.00 63 1017.0
20260902034737 83 264 1.0 2.0 0.00 0.00 0.00 63 1017.0
20260902034235 83 250 0.0 2.0 0.00 0.00 0.00 62 1017.0
20260902033735 84 269 1.0 2.0 0.00 0.00 0.00 61 1017.0
20260902033236 84 264 1.0 2.0 0.00 0.00 0.00 61 1016.0
20260902032740 84 263 1.0 2.0 0.00 0.00 0.00 61 1017.0
20260902032236 84 262 1.0 2.0 0.00 0.00 0.00 60 1017.0
20260902031735 84 254 1.0 2.0 0.00 0.00 0.00 60 1017.0
20260902031235 84 256 1.0 2.0 0.00 0.00 0.00 60 1017.0
20260902030735 84 261 1.0 2.0 0.00 0.00 0.00 59 1016.0
20260902030235 84 269 1.0 2.0 0.00 0.00 0.00 59 1017.0
20260902025736 85 250 1.0 2.0 0.00 0.00 0.00 60 1016.0
20260902025236 85 234 2.0 2.0 0.00 0.00 0.00 59 1017.0
20260902024736 85 257 1.0 2.0 0.00 0.00 0.00 59 1017.0
20260902024235 85 266 1.0 2.0 0.00 0.00 0.00 58 1017.0
20260902023737 85 264 1.0 2.0 0.00 0.00 0.00 58 1017.0
20260902023239 85 252 1.0 2.0 0.00 0.00 0.00 58 1016.0
20260902022737 86 257 1.0 2.0 0.00 0.00 0.00 58 1016.0
20260902022238 86 252 2.0 2.0 0.00 0.00 0.00 58 1016.0
20260902021737 86 269 1.0 2.0 0.00 0.00 0.00 58 1016.0
20260902021235 86 249 1.0 2.0 0.00 0.00 0.00 58 1016.0
20260902020735 86 262 1.0 2.0 0.00 0.00 0.00 57 1016.0
20260902020235 87 255 2.0 2.0 0.00 0.00 0.00 57 1016.0
20260902015735 87 271 2.0 2.0 0.00 0.00 0.00 57 1016.0
20260902015235 87 245 1.0 2.0 0.00 0.00 0.00 56 1016.0
20260902014737 87 236 2.0 3.0 0.00 0.00 0.00 56 1016.0
20260902014237 88 235 2.0 2.0 0.00 0.00 0.00 56 1016.0
20260902013735 88 257 1.0 2.0 0.00 0.00 0.00 55 1016.0
20260902013235 88 237 2.0 2.0 0.00 0.00 0.00 55 1016.0
20260902012738 89 245 2.0 3.0 0.00 0.00 0.00 54 1016.0
20260902012236 89 246 2.0 2.0 0.00 0.00 0.00 54 1016.0
20260902011735 89 248 2.0 2.0 0.00 0.00 0.00 53 1016.0
20260902011236 90 263 1.0 2.0 0.00 0.00 0.00 53 1016.0
20260902010735 90 245 2.0 2.0 0.00 0.00 0.00 52 1016.0
20260902010235 90 236 2.0 2.0 0.00 0.00 0.00 51 1015.0
20260902005735 91 273 1.0 2.0 0.00 0.00 0.00 50 1016.0
20260902005237 91 259 2.0 2.0 0.00 0.00 0.00 49 1015.0
20260902004736 91 244 2.0 2.0 0.00 0.00 0.00 49 1016.0
20260902004236 92 216 1.0 2.0 0.00 0.00 0.00 48 1016.0
20260902003737 92 232 2.0 3.0 0.00 0.00 0.00 48 1015.0
20260902003236 92 233 1.0 2.0 0.00 0.00 0.00 47 1015.0
20260902002736 92 202 1.0 3.0 0.00 0.00 0.00 47 1015.0
20260902002235 93 209 1.0 4.0 0.00 0.00 0.00 46 1015.0
20260902001735 93 214 2.0 3.0 0.00 0.00 0.00 46 1015.0
20260902001236 93 106 0.0 2.0 0.00 0.00 0.00 45 1016.0
20260902000735 94 198 1.0 3.0 0.00 0.00 0.00 45 1015.0
20260902000241 94 199 1.0 3.0 0.00 0.00 0.00 44 1016.0
20260901235736 94 192 2.0 3.0 0.00 0.00 0.00 44 1015.0
20260901235235 95 180 2.0 2.0 0.00 0.00 0.00 44 1016.0
20260901234736 95 180 1.0 2.0 0.00 0.00 0.00 44 1016.0
20260901234236 95 227 2.0 2.0 0.00 0.00 0.00 44 1016.0
20260901233735 95 210 2.0 2.0 0.00 0.00 0.00 44 1016.0
20260901233235 95 214 2.0 3.0 0.00 0.00 0.00 44 1016.0
20260901232735 95 188 2.0 3.0 0.00 0.00 0.00 43 1016.0
20260901232235 95 229 1.0 3.0 0.00 0.00 0.00 43 1016.0
20260901231735 95 242 2.0 3.0 0.00 0.00 0.00 42 1016.0
20260901231237 95 144 2.0 2.0 0.00 0.00 0.00 42 1016.0
20260901230735 96 224 1.0 3.0 0.00 0.00 0.00 41 1016.0
20260901230235 96 229 2.0 3.0 0.00 0.00 0.00 41 1016.0
20260901225736 96 219 2.0 2.0 0.00 0.00 0.00 41 1016.0
20260901225235 96 218 2.0 2.0 0.00 0.00 0.00 40 1016.0
20260901224736 97 186 2.0 2.0 0.00 0.00 0.00 39 1016.0
20260901224235 97 224 1.0 2.0 0.00 0.00 0.00 38 1016.0
20260901223736 97 214 3.0 3.0 0.00 0.00 0.00 38 1016.0
20260901223235 98 214 2.0 2.0 0.00 0.00 0.00 38 1016.0
20260901222736 99 204 3.0 3.0 0.00 0.00 0.00 37 1016.0
20260901222235 99 244 2.0 3.0 0.00 0.00 0.00 37 1016.0
20260901221735 99 239 2.0 2.0 0.00 0.00 0.00 35 1015.0
20260901221237 99 234 3.0 3.0 0.00 0.00 0.00 37 1015.0
20260901220735 98 236 2.0 5.0 0.00 0.00 0.00 36 1015.0
20260901220235 99 248 3.0 3.0 0.00 0.00 0.00 35 1015.0
20260901215735 100 253 2.0 5.0 0.00 0.00 0.00 34 1016.0
20260901215236 99 241 1.0 5.0 0.00 0.00 0.00 35 1016.0
20260901214735 99 198 1.0 2.0 0.00 0.00 0.00 35 1016.0
20260901214235 99 223 1.0 5.0 0.00 0.00 0.00 35 1015.0
20260901213735 99 172 2.0 3.0 0.00 0.00 0.00 35 1015.0
20260901213235 98 231 3.0 3.0 0.00 0.00 0.00 36 1015.0
20260901212736 98 249 4.0 5.0 0.00 0.00 0.00 36 1015.0
20260901212235 98 198 2.0 2.0 0.00 0.00 0.00 36 1016.0
20260901211741 98 169 2.0 4.0 0.00 0.00 0.00 36 1015.0
20260901211235 98 235 2.0 3.0 0.00 0.00 0.00 36 1015.0
20260901210735 99 230 2.0 3.0 0.00 0.00 0.00 35 1016.0
20260901210235 99 252 2.0 4.0 0.00 0.00 0.00 36 1016.0
20260901205736 99 266 3.0 5.0 0.00 0.00 0.00 36 1016.0
20260901205235 99 165 0.0 3.0 0.00 0.00 0.00 35 1016.0
20260901204735 98 301 2.0 2.0 0.00 0.00 0.00 36 1016.0
20260901204237 98 296 2.0 3.0 0.00 0.00 0.00 36 1016.0
20260901203735 98 245 2.0 5.0 0.00 0.00 0.00 36 1016.0
20260901203235 98 240 2.0 6.0 0.00 0.00 0.00 36 1016.0
20260901202735 98 250 2.0 3.0 0.00 0.00 0.00 36 1016.0
20260901202235 98 233 5.0 6.0 0.00 0.00 0.00 36 1016.0
20260901201736 98 243 2.0 3.0 0.00 0.00 0.00 36 1016.0
20260901201235 98 131 1.0 4.0 0.00 0.00 0.00 36 1016.0
20260901200735 98 201 2.0 3.0 0.00 0.00 0.00 37 1016.0
20260901200235 98 193 1.0 3.0 0.00 0.00 0.00 36 1016.0
20260901195736 98 169 3.0 4.0 0.00 0.00 0.00 36 1017.0
20260901195235 98 255 2.0 4.0 0.00 0.00 0.00 35 1017.0
20260901194738 98 233 4.0 5.0 0.00 0.00 0.00 36 1016.0
20260901194235 98 237 2.0 3.0 0.00 0.00 0.00 36 1017.0
20260901193735 97 241 4.0 4.0 0.00 0.00 0.00 37 1017.0
20260901193236 97 196 2.0 3.0 0.00 0.00 0.00 37 1017.0
20260901192736 97 227 5.0 5.0 0.00 0.00 0.00 38 1017.0
20260901192236 97 195 2.0 5.0 0.00 0.00 0.00 38 1017.0
20260901191736 96 225 2.0 5.0 0.00 0.00 0.00 39 1017.0
20260901191236 97 237 2.0 3.0 0.00 0.00 0.00 39 1017.0
20260901190735 96 247 2.0 3.0 0.00 0.00 0.00 39 1017.0
20260901190237 96 272 1.0 4.0 0.00 0.00 0.00 39 1017.0
20260901185736 96 232 5.0 5.0 0.00 0.00 0.00 40 1017.0
20260901185235 96 241 3.0 5.0 0.00 0.00 0.00 41 1017.0
20260901184735 95 266 2.0 2.0 0.00 0.00 0.00 42 1017.0
20260901184235 96 269 5.0 8.0 0.00 0.00 0.00 42 1017.0
20260901183736 95 236 3.0 3.0 0.00 0.00 0.00 41 1017.0
20260901183236 95 253 4.0 4.0 0.00 0.00 0.00 41 1017.0
20260901182735 95 265 3.0 5.0 0.00 0.00 0.00 42 1018.0
20260901182235 95 269 3.0 6.0 0.00 0.00 0.00 41 1018.0
20260901181735 95 268 4.0 5.0 0.00 0.00 0.00 42 1018.0
20260901181235 95 262 4.0 4.0 0.00 0.00 0.00 42 1018.0
20260901180738 94 246 2.0 6.0 0.00 0.00 0.00 42 1018.0
20260901180236 93 263 3.0 6.0 0.00 0.00 0.00 45 1018.0
20260901175737 94 243 3.0 8.0 0.00 0.00 0.00 43 1018.0
20260901175235 93 264 3.0 7.0 0.00 0.00 0.00 44 1018.0
20260901174735 93 266 3.0 6.0 0.00 0.00 0.00 45 1018.0
20260901174235 93 253 5.0 5.0 0.00 0.00 0.00 45 1018.0
20260901173735 93 238 3.0 5.0 0.00 0.00 0.00 46 1018.0
20260901173235 92 252 4.0 6.0 0.00 0.00 0.00 46 1018.0
20260901172736 92 232 3.0 5.0 0.00 0.00 0.00 48 1018.0
20260901172235 92 259 3.0 5.0 0.00 0.00 0.00 48 1018.0
20260901171736 92 277 4.0 5.0 0.00 0.00 0.00 49 1018.0
20260901171236 91 268 3.0 6.0 0.00 0.00 0.00 49 1018.0
20260901170737 91 248 4.0 4.0 0.00 0.00 0.00 49 1018.0
20260901170237 91 266 5.0 6.0 0.00 0.00 0.00 49 1018.0
20260901165735 91 244 2.0 5.0 0.00 0.00 0.00 50 1018.0
20260901165235 91 298 3.0 5.0 0.00 0.00 0.00 50 1018.0
20260901164736 91 255 3.0 5.0 0.00 0.00 0.00 51 1019.0
20260901164236 91 304 3.0 4.0 0.00 0.00 0.00 50 1019.0
20260901163735 91 240 4.0 6.0 0.00 0.00 0.00 50 1019.0
20260901163235 91 274 5.0 5.0 0.00 0.00 0.00 50 1019.0
20260901162735 90 252 5.0 6.0 0.00 0.00 0.00 51 1019.0
20260901162236 90 251 3.0 3.0 0.00 0.00 0.00 52 1019.0
20260901161735 90 273 3.0 6.0 0.00 0.00 0.00 52 1019.0
20260901161236 90 309 4.0 5.0 0.00 0.00 0.00 53 1019.0
20260901160736 90 278 3.0 4.0 0.00 0.00 0.00 54 1019.0
20260901160236 89 243 3.0 5.0 0.00 0.00 0.00 54 1019.0
20260901155737 89 263 4.0 6.0 0.00 0.00 0.00 53 1019.0
20260901155235 89 294 4.0 6.0 0.00 0.00 0.00 52 1019.0
20260901154735 89 257 3.0 6.0 0.00 0.00 0.00 53 1019.0
20260901154235 89 271 3.0 5.0 0.00 0.00 0.00 54 1019.0
20260901153735 89 275 4.0 8.0 0.00 0.00 0.00 54 1019.0
20260901153237 88 269 3.0 5.0 0.00 0.00 0.00 55 1019.0
20260901152737 88 269 2.0 5.0 0.00 0.00 0.00 55 1019.0
20260901152235 88 241 3.0 6.0 0.00 0.00 0.00 55 1019.0
20260901151736 88 239 3.0 5.0 0.00 0.00 0.00 55 1019.0
20260901151236 87 234 3.0 4.0 0.00 0.00 0.00 56 1019.0
20260901150736 86 246 4.0 5.0 0.00 0.00 0.00 57 1019.0
20260901150236 87 264 5.0 8.0 0.00 0.00 0.00 56 1019.0
20260901145735 86 236 5.0 6.0 0.00 0.00 0.00 58 1019.0
20260901145235 87 236 3.0 8.0 0.00 0.00 0.00 57 1019.0
20260901144736 87 272 4.0 6.0 0.00 0.00 0.00 57 1019.0
20260901144235 87 241 4.0 6.0 0.00 0.00 0.00 57 1019.0
20260901143736 87 250 2.0 5.0 0.00 0.00 0.00 57 1019.0
20260901143236 86 264 6.0 7.0 0.00 0.00 0.00 57 1019.0
20260901142739 85 239 3.0 5.0 0.00 0.00 0.00 58 1019.0
20260901142236 86 277 3.0 6.0 0.00 0.00 0.00 59 1019.0
20260901141736 85 265 4.0 4.0 0.00 0.00 0.00 60 1019.0
20260901141235 85 246 3.0 5.0 0.00 0.00 0.00 61 1019.0
20260901140736 84 251 3.0 5.0 0.00 0.00 0.00 60 1019.0
20260901140235 84 247 3.0 5.0 0.00 0.00 0.00 61 1019.0
20260901135736 84 247 3.0 4.0 0.00 0.00 0.00 62 1019.0
20260901135235 84 260 4.0 5.0 0.00 0.00 0.00 62 1019.0
20260901134735 84 263 3.0 5.0 0.00 0.00 0.00 61 1019.0
20260901134235 84 243 5.0 5.0 0.00 0.00 0.00 61 1019.0
20260901133736 84 239 3.0 5.0 0.00 0.00 0.00 61 1019.0
20260901133238 84 215 2.0 2.0 0.00 0.00 0.00 62 1019.0
20260901132737 84 246 2.0 3.0 0.00 0.00 0.00 63 1019.0
20260901132236 84 239 2.0 3.0 0.00 0.00 0.00 63 1019.0
20260901131735 83 195 1.0 2.0 0.00 0.00 0.00 65 1019.0
20260901131239 82 216 0.0 3.0 0.00 0.00 0.00 66 1019.0
20260901130736 81 244 1.0 3.0 0.00 0.00 0.00 67 1019.0
20260901130237 80 218 1.0 3.0 0.00 0.00 0.00 68 1019.0
20260901125735 80 202 2.0 2.0 0.00 0.00 0.00 70 1019.0
20260901125235 79 196 1.0 2.0 0.00 0.00 0.00 72 1019.0
20260901124736 78 213 2.0 2.0 0.00 0.00 0.00 73 1019.0
20260901124235 78 258 0.0 2.0 0.00 0.00 0.00 74 1019.0
20260901123735 77 216 2.0 2.0 0.00 0.00 0.00 74 1018.0
20260901123235 77 182 1.0 2.0 0.00 0.00 0.00 74 1019.0
20260901122736 77 228 1.0 2.0 0.00 0.00 0.00 75 1019.0
20260901122235 77 211 2.0 2.0 0.00 0.00 0.00 75 1019.0
20260901121735 77 207 1.0 2.0 0.00 0.00 0.00 75 1019.0
20260901121235 76 222 1.0 2.0 0.00 0.00 0.00 76 1018.0
20260901120736 76 215 2.0 2.0 0.00 0.00 0.00 76 1018.0
20260901120236 76 214 1.0 2.0 0.00 0.00 0.00 76 1018.0
20260901115735 76 224 1.0 2.0 0.00 0.00 0.00 76 1018.0
20260901115235 76 226 1.0 2.0 0.00 0.00 0.00 76 1018.0
20260901114737 76 222 2.0 2.0 0.00 0.00 0.00 77 1018.0
20260901114236 76 207 1.0 2.0 0.00 0.00 0.00 77 1018.0
20260901113735 76 196 0.0 2.0 0.00 0.00 0.00 77 1018.0